Simultaneous Nadir Overpasses (SNOs) Predictions

Prediction of SNOs between NOAA-19 and TERRA Satellite Orbit:

Table of predicted SNOs for the next 14.0 days since TLE Epoch: 5/11/2012
Index Date (NOAA-19) Time (NOAA-19) NOAA-19 Lat,Lon Date (TERRA) Time (TERRA) TERRA Lat,Lon Distance(km) Time Diff (sec)
1 05/13/2012 08:23:11 69.02, 53.42 05/13/2012 08:24:03 69.03, 53.41 1.09 52
2 05/13/2012 09:14:06 -68.90,-139.16 05/13/2012 09:13:33 -68.92,-139.10 2.99 33
3 05/15/2012 13:07:54 68.99, -17.71 05/15/2012 13:08:21 68.96, -17.75 3.30 27
4 05/15/2012 13:58:49 -68.85, 149.74 05/15/2012 13:57:51 -68.85, 149.75 1.09 58
5 05/17/2012 17:01:49 -69.96, 102.46 05/17/2012 17:02:56 -69.88, 104.76 88.30 67
6 05/17/2012 17:52:37 68.95, -88.85 05/17/2012 17:52:38 68.94, -88.85 1.76 1
7 05/17/2012 18:43:26 -68.47, 79.07 05/17/2012 18:42:14 -68.50, 78.24 33.81 72
8 05/19/2012 21:46:16 -69.06, 32.60 05/19/2012 21:47:27 -69.08, 32.62 2.26 71
9 05/19/2012 22:37:20 68.92,-159.98 05/19/2012 22:36:55 68.91,-159.96 2.14 25
10 05/22/2012 02:30:59 -69.01, -38.50 05/22/2012 02:31:45 -68.99, -38.57 3.25 46
11 05/22/2012 03:22:02 68.84, 128.95 05/22/2012 03:21:12 68.87, 128.92 2.99 50
12 05/24/2012 07:15:43 -69.00,-109.67 05/24/2012 07:16:01 -69.00,-109.63 1.85 18
13 05/24/2012 08:06:43 68.71, 57.96 05/24/2012 08:05:30 68.76, 57.72 11.21 73




NCC Satellite Simultaneous Nadir Overpasses (SNOs) Prediction Service
